Regional Weather Roundup
Issued by NWS

Home | Current Version | Previous Version | Text Only | Print | Product List | Glossary On
Versions: 1 2 3 4 5 6 7 8 9 10 11 12 13 14 15 16 17 18 19 20 21 22 23 24 25 26 27 28 29 30 31 32 33 34 35 36 37 38 39 40 41 42 43 44 45 46 47 48 49 50
000
ASUS43 KTOP 071359
RWRKS

WEATHER ROUNDUP FOR KANSAS
NATIONAL WEATHER SERVICE GOODLAND KS
800 AM CST WED DEC 07 2016

NOTE:  "FAIR" INDICATES FEW OR NO CLOUDS BELOW 12,000 FEET WITH NO
SIGNIFICANT WEATHER AND/OR OBSTRUCTIONS TO VISIBILITY.

KSZ001>006-013>018-027>032-041>047-071500-
NORTHWEST KANSAS

CITY           SKY/WX    TMP DP  RH WIND       PRES   REMARKS
GOODLAND       LGT SNOW  15  12  88 NE15      30.13R FOG     WCI   0
HAYS           PTCLDY    22  13  68 N12       30.23R WCI  10
HILL CITY      CLOUDY    18  11  74 N13       30.26R WCI   5
RUSSELL        MOCLDY    22  13  68 NE12      30.21R WCI  10
$$

KSZ061>065-074>080-084>089-071500-
SOUTHWEST KANSAS

CITY           SKY/WX    TMP DP  RH WIND       PRES   REMARKS
DODGE CITY     CLOUDY    28  17  63 E13       30.11R WCI  17
ELKHART          N/A     20   9  63 SE5         N/A
GARDEN CITY    CLOUDY    25  17  72 NE12      30.11R WCI  14
LIBERAL        CLOUDY    28  14  54 E8        30.06R
$$

KSZ066>073-081>083-090>101-071500-
SOUTHEAST KANSAS

CITY           SKY/WX    TMP DP  RH WIND       PRES   REMARKS
CHANUTE        CLOUDY    33  19  56 N6        30.21R
COFFEYVILLE    CLOUDY    34  19  54 NE8       30.20R
HUTCHINSON     CLOUDY    30  19  63 N8        30.21R
MEDICINE LODGE   N/A     32  16  51 E8        30.15R
NEWTON         CLOUDY    28  18  66 NE7       30.20R
PARSONS        CLOUDY    34  20  56 VRB3      30.21R
WICHITA INTL   CLOUDY    34  15  46 E8        30.19R
WICHITA JABRA  CLOUDY    31  19  61 NE9       30.19R
WINFIELD       CLOUDY    35  15  44 E7        30.17R
$$

KSZ007>012-019>026-033>040-048>060-102>105-071500-
NORTHEAST KANSAS

CITY           SKY/WX    TMP DP  RH WIND       PRES   REMARKS
CONCORDIA      MOCLDY    20  15  81 N12       30.26R WCI   8
EMPORIA        CLOUDY    29  16  58 N6        30.22R
LAWRENCE       CLOUDY    28  15  58 NW5       30.25R
MANHATTAN      CLOUDY    28  14  55 N5        30.27R
OLATHE IND     CLOUDY    29  14  53 NW8       30.23R
OLATHE EXE     CLOUDY    30  11  45 N6        30.22R
SALINA         CLOUDY    27  13  55 NE12      30.26R WCI  17
TOPEKA BILLARD CLOUDY    28  15  58 N9        30.27R
TOPEKA FORBES  CLOUDY    29  13  51 N10       30.24R WCI  20
$$




USA.gov is the U.S. government's official web portal to all federal, state and local government web resources and services.